Starlink 31783

operational
NORAD ID: 59750 Int'l Des: 2024-090 Owner: SPXS Country: US Constellation: starlink
LEOCIRCULAR

Über Starlink 31783

Beschreibung wird geladen...

Live-Position

3D-Globus wird geladen...

Nächste Überflüge

Höhenverlauf

Altitude vs Time

uPlot chart will show altitude changes over time

Zweizeiliger Elementsatz

1 59750U 24090W 25351.22295921 .00001654 00000-0 69606-4 0 9996
2 59750 43.0011 289.5931 0000892 288.9433 71.1322 15.27578863 90816
Epoch: 17. Dez. 2025 • Age: 14 hours

Aktueller Status

Höhe 491.0 km
Geschwindigkeit 7.62 km/s
Subsatellitenpunkt -31.37°S, 129.79°W
Startdatum 13. Mai 2024
Alter 1.5 years
Typ internet

Technische Details

Klassifizierung Payload
Masse 730.00 kg
Trockenmasse 700.00 kg
Gesamtmasse 730.00 kg
Länge 0.30 m
Durchmesser 4.10 m
Spannweite 29.00 m
Form Box + pan
Hersteller SPXS
Bus-Typ Starlink V2M
Phasenstatus In Orbit
Besitzer/Staat SPXS/US

Große Konstellationen

Loading constellations...